Location: Newark
(52.3735°N, 16.9806°E)
Time: 22:52:31
(UTC+00:00)

M-CUBED/EXP-1 PRIME - Visible Passes

Search period start: 01 December 2021 00:00
Search period end: 11 December 2021 00:00
Orbit: 427 x 652 km, 101.7° (Epoch: 01 December)

Date Brightness Start Highest point End Pass type
(mag) Time Alt. Az. Time Alt. Az. Time Alt. Az.
01 Dec ? 05:27:21 10° NE 05:31:36 38° ESE 05:35:46 10° S visible
01 Dec ? 16:15:37 10° SSE 16:19:41 76° WSW 16:24:02 10° NNW visible
01 Dec ? 17:53:41 10° WSW 17:54:34 11° W 17:55:28 10° WNW visible
02 Dec ? 05:19:58 10° NE 05:24:02 32° E 05:28:00 10° SSE visible
02 Dec ? 16:08:04 10° SSE 16:12:10 88° ENE 16:16:34 10° NNW visible
02 Dec ? 17:44:53 10° WSW 17:46:55 13° W 17:49:00 10° WNW visible
03 Dec ? 05:12:38 10° NE 05:16:28 26° E 05:20:11 10° SSE visible
03 Dec ? 16:00:33 10° SSE 16:04:40 73° ENE 16:09:03 10° NNW visible
03 Dec ? 17:36:36 10° SW 17:39:16 16° W 17:42:01 10° NW visible
04 Dec ? 05:05:20 10° NE 05:08:51 22° E 05:12:17 10° SSE visible
04 Dec ? 15:53:03 10° SE 15:57:10 60° ENE 16:01:31 10° NNW visible
04 Dec ? 17:28:31 10° SW 17:31:37 20° W 17:34:51 10° NW visible
05 Dec ? 04:58:07 10° NE 05:01:14 18° E 05:04:16 10° SE visible
05 Dec ? 15:45:37 10° SE 15:49:40 49° ENE 15:53:58 10° NNW visible
05 Dec ? 17:20:32 10° SSW 17:23:58 24° W 17:27:35 10° NW visible
06 Dec ? 04:51:00 10° ENE 04:53:34 15° E 04:56:05 10° SE visible
06 Dec ? 15:38:12 10° SE 15:42:11 41° ENE 15:46:23 10° N visible
06 Dec ? 17:12:39 10° SSW 17:16:21 30° W 17:20:15 10° NW visible
07 Dec ? 04:44:07 10° ENE 04:45:53 12° E 04:47:38 10° ESE visible
07 Dec ? 15:30:49 10° ESE 15:34:42 35° ENE 15:38:46 10° N visible
07 Dec ? 17:04:49 10° S 17:08:44 36° WSW 17:12:51 10° NW visible
08 Dec ? 15:23:28 10° ESE 15:27:14 30° NE 15:31:07 10° N visible
08 Dec ? 16:57:03 10° S 17:01:07 44° WSW 17:05:25 10° NNW visible
09 Dec ? 06:01:09 10° NNE 06:05:33 53° ESE 06:09:44 10° S visible
09 Dec ? 15:16:10 10° ESE 15:19:45 26° NE 15:23:28 10° N visible
09 Dec ? 16:49:19 10° S 16:53:31 54° WSW 16:57:56 10° NNW visible
10 Dec ? 05:53:40 10° NNE 05:57:56 43° ESE 06:02:00 10° S visible
10 Dec ? 16:41:38 10° SSE 16:45:55 67° WSW 16:50:24 10° NNW visible
